Tiempo cada hora San Sebastián

Hoy, 15 Mayo, Sábado

Tiempo Temperatura Precipitaciones Viento Presión Humedad
00:00 +11°C° 0 mm 1 mps 733 mmHg 73%
01:00 +11°C° 0.1 mm 1 mps 732 mmHg 74%
02:00 +11°C° 0.1 mm 1 mps 731 mmHg 75%
03:00 +11°C° 0.1 mm 1 mps 731 mmHg 76%
04:00 +11°C° 0 mm 1 mps 731 mmHg 75%
05:00 +12°C° 0 mm 1 mps 731 mmHg 75%
06:00 +12°C° 0 mm 1 mps 731 mmHg 75%
07:00 +12°C° 0 mm 1 mps 731 mmHg 77%
08:00 +13°C° 0 mm 1 mps 731 mmHg 78%
09:00 +13°C° 0 mm 1 mps 731 mmHg 80%
10:00 +14°C° 0 mm 1 mps 730 mmHg 79%
11:00 +14°C° 0 mm 1 mps 730 mmHg 77%
12:00 +15°C° 0 mm 1 mps 730 mmHg 76%
13:00 +15°C° 0 mm 1 mps 730 mmHg 79%
14:00 +15°C° 0 mm 1 mps 730 mmHg 81%
15:00 +14°C° 0 mm 1 mps 730 mmHg 84%
16:00 +14°C° 0.1 mm 1 mps 730 mmHg 87%
17:00 +13°C° 0.1 mm 0 mps 730 mmHg 90%
18:00 +12°C° 0.1 mm 0 mps 731 mmHg 93%
19:00 +12°C° 0.2 mm 0 mps 731 mmHg 93%
20:00 +13°C° 0.2 mm 1 mps 731 mmHg 94%
21:00 +13°C° 0.2 mm 1 mps 731 mmHg 94%
22:00 +13°C° 0 mm 1 mps 730 mmHg 94%
23:00 +13°C° 0 mm 1 mps 730 mmHg 93%

Mañana, 16 Mayo, Domingo

Tiempo Temperatura Precipitaciones Viento Presión Humedad
00:00 +13°C° 0 mm 1 mps 730 mmHg 92%
01:00 +13°C° 0 mm 1 mps 729 mmHg 91%
02:00 +14°C° 0 mm 1 mps 729 mmHg 91%
03:00 +14°C° 0 mm 1 mps 729 mmHg 91%
04:00 +14°C° 0 mm 1 mps 729 mmHg 90%
05:00 +15°C° 0 mm 1 mps 729 mmHg 90%
06:00 +14°C° 0 mm 0 mps 729 mmHg 90%
07:00 +15°C° 0.1 mm 1 mps 729 mmHg 91%
08:00 +15°C° 0.1 mm 1 mps 730 mmHg 91%
09:00 +16°C° 0.1 mm 1 mps 730 mmHg 92%
10:00 +16°C° 0.5 mm 2 mps 731 mmHg 94%
11:00 +15°C° 0.5 mm 2 mps 731 mmHg 95%
12:00 +14°C° 0.5 mm 3 mps 731 mmHg 96%
13:00 +14°C° 0.4 mm 3 mps 731 mmHg 95%
14:00 +13°C° 0.4 mm 3 mps 732 mmHg 94%
15:00 +13°C° 0.4 mm 4 mps 732 mmHg 94%
16:00 +12°C° 0.1 mm 4 mps 732 mmHg 93%
17:00 +12°C° 0.1 mm 4 mps 733 mmHg 93%
18:00 +11°C° 0.1 mm 4 mps 733 mmHg 93%
19:00 +11°C° 0 mm 4 mps 733 mmHg 91%
20:00 +10°C° 0 mm 3 mps 733 mmHg 90%
21:00 +10°C° 0 mm 3 mps 734 mmHg 88%
22:00 +10°C° 0.1 mm 3 mps 734 mmHg 88%
23:00 +10°C° 0.1 mm 3 mps 734 mmHg 88%

Pasado mañana, 17 Mayo, Lunes

Tiempo Temperatura Precipitaciones Viento Presión Humedad
00:00 +10°C° 0.1 mm 2 mps 734 mmHg 88%
01:00 +10°C° 0 mm 2 mps 733 mmHg 87%
02:00 +10°C° 0 mm 2 mps 733 mmHg 86%
03:00 +10°C° 0 mm 2 mps 733 mmHg 86%
04:00 +10°C° 0 mm 2 mps 734 mmHg 85%
05:00 +10°C° 0 mm 2 mps 734 mmHg 84%
06:00 +10°C° 0 mm 2 mps 734 mmHg 83%
07:00 +11°C° 0 mm 3 mps 734 mmHg 81%
08:00 +11°C° 0 mm 3 mps 735 mmHg 79%
09:00 +12°C° 0 mm 3 mps 735 mmHg 77%
10:00 +13°C° 0 mm 4 mps 735 mmHg 71%
11:00 +14°C° 0 mm 4 mps 735 mmHg 66%
12:00 +15°C° 0 mm 5 mps 735 mmHg 61%
13:00 +15°C° 0 mm 5 mps 735 mmHg 62%
14:00 +15°C° 0 mm 5 mps 735 mmHg 64%
15:00 +15°C° 0 mm 5 mps 735 mmHg 66%
16:00 +14°C° 0 mm 5 mps 735 mmHg 66%
17:00 +14°C° 0 mm 5 mps 735 mmHg 67%
18:00 +14°C° 0 mm 5 mps 735 mmHg 68%
19:00 +12°C° 0 mm 4 mps 736 mmHg 71%
20:00 +11°C° 0 mm 4 mps 736 mmHg 74%
21:00 +10°C° 0 mm 4 mps 737 mmHg 77%
22:00 +10°C° 0 mm 3 mps 737 mmHg 77%
23:00 +10°C° 0 mm 3 mps 737 mmHg 77%

18 Mayo, Martes

Tiempo Temperatura Precipitaciones Viento Presión Humedad
00:00 +9°C° 0 mm 3 mps 737 mmHg 77%
01:00 +9°C° 0 mm 3 mps 737 mmHg 79%
02:00 +8°C° 0 mm 3 mps 737 mmHg 80%
03:00 +8°C° 0 mm 2 mps 738 mmHg 81%
04:00 +8°C° 0 mm 2 mps 738 mmHg 80%
05:00 +9°C° 0 mm 2 mps 738 mmHg 79%
06:00 +9°C° 0 mm 2 mps 738 mmHg 78%
07:00 +11°C° 0 mm 3 mps 739 mmHg 71%
08:00 +12°C° 0 mm 4 mps 739 mmHg 63%
09:00 +14°C° 0 mm 4 mps 739 mmHg 56%
10:00 +15°C° 0 mm 5 mps 739 mmHg 52%
11:00 +16°C° 0 mm 5 mps 739 mmHg 49%
12:00 +17°C° 0 mm 5 mps 738 mmHg 45%
13:00 +17°C° 0 mm 5 mps 738 mmHg 45%
14:00 +17°C° 0 mm 5 mps 738 mmHg 46%
15:00 +17°C° 0 mm 5 mps 738 mmHg 46%
16:00 +16°C° 0 mm 5 mps 738 mmHg 52%
17:00 +15°C° 0 mm 4 mps 739 mmHg 58%
18:00 +14°C° 0 mm 4 mps 739 mmHg 64%
19:00 +12°C° 0 mm 4 mps 739 mmHg 69%
20:00 +11°C° 0 mm 4 mps 740 mmHg 74%
21:00 +10°C° 0 mm 3 mps 740 mmHg 78%
22:00 +9°C° 0 mm 3 mps 741 mmHg 83%
23:00 +8°C° 0 mm 3 mps 741 mmHg 88%

19 Mayo, Miércoles

Tiempo Temperatura Precipitaciones Viento Presión Humedad
00:00 +7°C° 0 mm 3 mps 741 mmHg 92%
01:00 +7°C° 0 mm 3 mps 741 mmHg 92%
02:00 +7°C° 0 mm 3 mps 741 mmHg 92%
03:00 +5°C° 0 mm 3 mps 741 mmHg 92%
04:00 +7°C° 0 mm 3 mps 741 mmHg 88%
05:00 +8°C° 0 mm 3 mps 742 mmHg 84%
06:00 +9°C° 0 mm 3 mps 742 mmHg 80%
07:00 +10°C° 0 mm 3 mps 742 mmHg 75%
08:00 +12°C° 0 mm 4 mps 742 mmHg 69%
09:00 +13°C° 0 mm 4 mps 742 mmHg 64%
10:00 +14°C° 0 mm 4 mps 742 mmHg 58%
11:00 +17°C° 0 mm 4 mps 742 mmHg 52%
12:00 +18°C° 0 mm 4 mps 741 mmHg 46%
13:00 +18°C° 0 mm 4 mps 741 mmHg 45%
14:00 +18°C° 0 mm 4 mps 741 mmHg 45%
15:00 +19°C° 0 mm 5 mps 741 mmHg 44%
16:00 +18°C° 0 mm 4 mps 741 mmHg 51%
17:00 +17°C° 0 mm 3 mps 741 mmHg 57%
18:00 +16°C° 0 mm 2 mps 741 mmHg 63%
19:00 +14°C° 0 mm 2 mps 741 mmHg 68%
20:00 +12°C° 0 mm 1 mps 741 mmHg 73%
21:00 +11°C° 0 mm 1 mps 742 mmHg 78%
22:00 +10°C° 0 mm 1 mps 742 mmHg 80%
23:00 +10°C° 0 mm 1 mps 742 mmHg 81%

20 Mayo, Jueves

Tiempo Temperatura Precipitaciones Viento Presión Humedad
00:00 +9°C° 0 mm 1 mps 742 mmHg 83%
01:00 +9°C° 0 mm 1 mps 741 mmHg 83%
02:00 +9°C° 0 mm 1 mps 741 mmHg 83%
03:00 +9°C° 0 mm 1 mps 741 mmHg 83%
04:00 +9°C° 0 mm 1 mps 741 mmHg 79%
05:00 +9°C° 0 mm 0 mps 741 mmHg 76%
06:00 +10°C° 0 mm 0 mps 741 mmHg 73%
07:00 +14°C° 0 mm 1 mps 741 mmHg 66%
08:00 +16°C° 0 mm 1 mps 741 mmHg 59%
09:00 +18°C° 0 mm 2 mps 741 mmHg 52%
10:00 +19°C° 0 mm 2 mps 740 mmHg 48%
11:00 +20°C° 0 mm 2 mps 740 mmHg 44%
12:00 +23°C° 0 mm 2 mps 740 mmHg 39%
13:00 +23°C° 0 mm 2 mps 739 mmHg 40%
14:00 +24°C° 0 mm 2 mps 739 mmHg 41%
15:00 +24°C° 0 mm 2 mps 739 mmHg 41%
16:00 +23°C° 0 mm 2 mps 739 mmHg 48%
17:00 +22°C° 0 mm 1 mps 739 mmHg 56%
18:00 +21°C° 0 mm 1 mps 738 mmHg 63%
19:00 +20°C° 0 mm 1 mps 739 mmHg 65%
20:00 +18°C° 0 mm 1 mps 739 mmHg 68%
21:00 +15°C° 0 mm 1 mps 739 mmHg 71%
22:00 +15°C° 0 mm 1 mps 738 mmHg 72%
23:00 +14°C° 0 mm 1 mps 738 mmHg 73%
Mostrar más

Necesitamos Su Consentimiento

Meteoprog y nuestros Proveedores de Servicios pueden almacenar y acceder a sus datos personales como cookies, identificadores de dispositivo u otras tecnologías similares de su dispositivo y procesar dichos datos para personalizar contenido y anuncios, además de ofrecer funciones de redes sociales y analizar el tráfico.

  • Almacenar y/o acceder a información en su dispositivo

    Se puede almacenar o acceder a cookies, identificadores de dispositivo u otra información de su dispositivo para los fines anteriormente indicados.

  • Anuncios y contenido personalizados, medición de anuncios y contenido, percepciones del público, y desarrollo de productos

    Los anuncios y el contenido pueden personalizarse en base a su perfil. Se pueden añadir más datos para personalizar mejor los anuncios y contenidos. Se puede medir el rendimiento de los anuncios y contenidos. Se puede obtener la percepción sobre el público que ha visto los anuncios y contenidos. Dichos datos pueden usarse para desarrollar o mejorar la experiencia del usuario, sistemas y software.

Al hacer clic en ‘Estoy De Acuerdo’ usted permitirá el uso de las cookies, identificadores de dispositivo, balizas web u otras tecnologías similares indicadas. Su configuración puede cambiarse desde el navegador de su dispositivo.

Para ciertos fines, los intereses legítimos pueden ser considerados por encima del consentimiento. Puede leer más sobre ello en nuestra Política de Privacidad y Cookies.